Stations météo

réclame
Mon MeteoGroup
Bournemouth Airport, Grande-Bretagne (3862): Température de l'air & dewpoint: 01.12.2019 17:00:00 - 07.12.2019 17:00:00 (GMT)Bournemouth Airport, Grande-Bretagne (3862): Température de l'air -20cm & Température de l'air -100cm: 01.12.2019 17:00:00 - 07.12.2019 17:00:00 (GMT)Bournemouth Airport, Grande-Bretagne (3862): Vitesse du vent & gusts: 01.12.2019 17:00:00 - 07.12.2019 17:00:00 (GMT)Bournemouth Airport, Grande-Bretagne (3862): Direction du vent: 01.12.2019 17:00:00 - 07.12.2019 17:00:00 (GMT)Bournemouth Airport, Grande-Bretagne (3862): reduced air pressure: 01.12.2019 17:00:00 - 07.12.2019 17:00:00 (GMT)Bournemouth Airport, Grande-Bretagne (3862): visibility: 01.12.2019 17:00:00 - 07.12.2019 17:00:00 (GMT)Bournemouth Airport, Grande-Bretagne (3862): Ensoleillement: 01.12.2019 17:00:00 - 07.12.2019 17:00:00 (GMT)Bournemouth Airport, Grande-Bretagne (3862): Quantités de précipitations: 01.12.2019 17:00:00 - 07.12.2019 17:00:00 (GMT)
Date & Time tt [°C] td [°C] tt -20cm [°C] tt -100cm [°C] ff [km/h] ff [knt] fx [km/h] fx [knt] dd ppp [hPa] vv [km] sd [min] rr [mm]
07.12.2019 17:00:00 10,6 7,9 - - 16 9 - - SW 1013,7 50 0 0,0
07.12.2019 16:00:00 10,7 8,0 - - 11 6 - - SW 1014,2 35 0 0,0
07.12.2019 15:00:00 10,8 7,3 - - 18 10 - - WSW 1014,5 10 0 0,0
07.12.2019 14:00:00 10,9 7,1 - - 16 9 - - WSW 1014,6 60 0 0,0
07.12.2019 13:00:00 11,4 6,7 - - 21 11 - - W 1015,1 40 30 0,0
07.12.2019 12:00:00 11,0 7,5 - - 16 9 - - WSW 1015,4 10 36 0,0
07.12.2019 11:00:00 10,9 7,2 - - 16 9 - - WSW 1015,5 10 36 0,0
07.12.2019 10:00:00 9,7 6,9 - - 9 5 - - W 1015,7 35 0 0,0
07.12.2019 09:00:00 8,6 6,9 7,5 8,2 13 7 - - WSW 1015,8 10 0 0,0
07.12.2019 08:00:00 7,2 5,7 - - 9 5 - - W 1016,0 10 0 0,0
07.12.2019 07:00:00 7,0 5,4 - - 9 5 - - WSW 1014,8 9 0 0,0
07.12.2019 06:00:00 8,0 6,4 - - 13 7 - - WSW 1014,4 26 0 0,0
07.12.2019 05:00:00 7,7 6,3 - - 5 3 - - SW 1014,0 25 0 0,0
07.12.2019 04:00:00 7,8 6,5 - - 8 4 - - WSW 1013,6 26 0 0,0
07.12.2019 03:00:00 7,7 6,4 - - 8 4 - - WSW 1013,3 28 0 0,0
07.12.2019 02:00:00 7,3 6,0 - - 8 4 - - SW 1012,6 24 0 0,0
07.12.2019 01:00:00 7,0 5,7 - - 13 7 - - W 1011,9 22 0 0,0
07.12.2019 00:00:00 9,5 7,5 - - 16 9 - - W 1011,9 9 - 0,0
06.12.2019 23:00:00 9,2 6,8 - - 15 8 - - W 1011,6 28 0 0,0
06.12.2019 22:00:00 8,2 6,0 - - 13 7 - - WSW 1010,9 10 0 0,0
06.12.2019 21:00:00 9,4 6,5 - - 9 5 - - W 1009,9 10 0 0,0
06.12.2019 20:00:00 9,5 6,4 - - 16 9 - - W 1009,2 29 0 0,0
06.12.2019 19:00:00 10,3 6,6 - - 13 7 - - W 1008,2 10 0 0,0
06.12.2019 18:00:00 10,4 7,6 - - 22 12 - - W 1006,9 10 0 0,0
06.12.2019 17:00:00 10,2 8,0 - - 22 12 - - W 1005,7 10 0 0,0
06.12.2019 16:00:00 11,3 9,4 - - 29 16 50 27 W 1005,0 10 0 0,2
06.12.2019 15:00:00 12,4 10,2 - - 28 15 61 33 W 1004,1 10 6 0,0
06.12.2019 14:00:00 13,0 11,4 - - 31 17 54 29 WSW 1004,4 10 6 0,0
06.12.2019 13:00:00 12,6 11,7 - - 28 15 54 29 WSW 1005,1 10 6 0,2
06.12.2019 12:00:00 13,0 11,7 - - 34 18 54 29 WSW 1006,0 9 0 0,0
06.12.2019 11:00:00 12,6 11,7 - - 34 18 57 31 WSW 1006,9 6 0 0,0
06.12.2019 10:00:00 12,8 11,5 - - 37 20 59 32 WSW 1007,2 10 0 0,0
06.12.2019 09:00:00 12,4 11,5 6,5 8,2 34 18 59 32 WSW 1007,6 6 0 0,0
06.12.2019 08:00:00 12,4 11,3 - - 41 22 55 30 WSW 1008,0 8 0 0,2
06.12.2019 07:00:00 12,2 11,2 - - 29 16 55 30 WSW 1008,6 8 0 0,2
06.12.2019 06:00:00 11,9 11,2 - - 26 14 48 26 SW 1009,1 2,3 0 0,0
06.12.2019 05:00:00 11,8 11,2 - - 26 14 50 27 WSW 1009,9 6 0 0,0
06.12.2019 04:00:00 11,6 10,8 - - 28 15 46 25 WSW 1010,3 3,7 0 0,0
06.12.2019 03:00:00 11,5 10,8 - - 28 15 50 27 WSW 1011,1 2,6 0 0,0
06.12.2019 02:00:00 11,3 10,6 - - 26 14 54 29 WSW 1012,0 8 0 0,2
06.12.2019 01:00:00 11,2 10,3 - - 28 15 52 28 WSW 1012,7 8 0 0,2
06.12.2019 00:00:00 10,8 10,0 - - 22 12 - - WSW 1013,7 9 - 0,0
05.12.2019 23:00:00 10,5 9,7 - - 18 10 - - WSW 1014,7 4,2 0 0,2
05.12.2019 22:00:00 10,6 9,0 - - 26 14 - - WSW 1015,6 3,9 0 0,0
05.12.2019 21:00:00 10,8 8,0 - - 28 15 46 25 WSW 1016,1 10 0 0,0
05.12.2019 20:00:00 10,7 7,3 - - 22 12 - - WSW 1016,7 10 0 0,0
05.12.2019 19:00:00 10,7 6,8 - - 26 14 - - WSW 1016,9 28 0 0,0
05.12.2019 18:00:00 10,6 6,6 - - 21 11 - - WSW 1017,3 10 0 0,0
05.12.2019 17:00:00 10,5 7,1 - - 22 12 - - WSW 1017,8 30 0 0,0
05.12.2019 16:00:00 10,2 7,1 - - 18 10 - - WSW 1018,0 10 0 0,0
05.12.2019 15:00:00 9,9 7,4 - - 11 6 - - WSW 1018,7 10 0 0,0
05.12.2019 14:00:00 10,1 7,8 - - 15 8 - - WSW 1019,5 30 0 0,0
05.12.2019 13:00:00 10,2 7,7 - - 15 8 - - WSW 1020,4 10 0 0,0
05.12.2019 12:00:00 8,6 7,0 - - 4 2 - - SW 1021,1 12 36 0,0
05.12.2019 11:00:00 4,3 3,8 - - 0 0 - - N 1022,1 9 0 0,0
05.12.2019 10:00:00 1,4 1,0 - - 2 1 - - - 1022,1 8 18 0,0
05.12.2019 09:00:00 -0,3 -0,5 5,7 8,7 2 1 - - N 1022,5 9 0 0,0
05.12.2019 08:00:00 -1,7 -2,1 - - 2 1 - - - 1022,2 8 0 0,0
05.12.2019 07:00:00 -1,1 -1,5 - - 2 1 - - NNE 1022,0 5 0 0,0
05.12.2019 06:00:00 -0,8 -1,2 - - 2 1 - - E 1021,9 9 0 0,0
05.12.2019 05:00:00 -1,9 -2,3 - - 4 2 - - WNW 1021,9 5 0 0,0
05.12.2019 04:00:00 -4,1 -4,6 - - 2 1 - - NW 1021,8 5 0 0,0
05.12.2019 03:00:00 -3,6 -4,1 - - 2 1 - - ENE 1021,7 4,5 0 0,0
05.12.2019 02:00:00 -3,7 -4,2 - - 0 0 - - N 1021,8 4,0 0 0,0
05.12.2019 01:00:00 -4,3 -4,9 - - 4 2 - - N 1022,3 5 0 0,0
05.12.2019 00:00:00 -3,8 -4,4 - - 4 2 - - N 1022,2 3,5 - 0,0
04.12.2019 23:00:00 -2,4 -2,7 - - 5 3 - - N 1021,9 3,0 0 0,0
04.12.2019 22:00:00 -2,1 -2,5 - - 4 2 - - N 1021,5 0,6 0 0,0
04.12.2019 21:00:00 -1,8 -2,3 - - 0 0 - - N 1021,3 0,4 0 0,0
04.12.2019 20:00:00 -1,2 -2,1 - - 2 1 - - NE 1021,2 5 0 0,0
04.12.2019 19:00:00 0,2 -0,6 - - 2 1 - - N 1021,0 10 0 0,0
04.12.2019 18:00:00 2,0 1,1 - - 5 3 - - NNW 1020,7 10 0 0,0
04.12.2019 17:00:00 2,1 0,6 - - 8 4 - - N 1020,1 21 0 0,0
04.12.2019 16:00:00 5,5 2,0 - - 8 4 - - NNE 1019,3 10 30 0,0
04.12.2019 15:00:00 7,4 3,3 - - 4 2 - - ENE 1019,2 35 6 0,0
04.12.2019 14:00:00 7,5 3,6 - - 4 2 - - ENE 1019,4 10 0 0,0
04.12.2019 13:00:00 7,7 3,8 - - 4 2 - - - 1019,9 10 0 0,0
04.12.2019 12:00:00 7,4 4,9 - - 4 2 - - - 1019,9 10 24 0,0
04.12.2019 11:00:00 5,3 4,8 - - 2 1 - - - 1020,3 10 24 0,0
04.12.2019 10:00:00 3,2 3,0 - - 5 3 - - ENE 1020,3 8 48 0,0
04.12.2019 09:00:00 0,5 0,3 6,2 8,7 5 3 - - ENE 1020,2 10 0 0,0
04.12.2019 08:00:00 -1,2 -1,5 - - 8 4 - - - 1020,2 4,9 0 0,0
04.12.2019 07:00:00 -0,1 -0,3 - - 2 1 - - - 1020,3 6 0 0,0
04.12.2019 06:00:00 -0,2 -0,4 - - 0 0 - - N 1020,3 5 0 0,0
04.12.2019 05:00:00 -1,1 -1,3 - - 5 3 - - W 1020,5 3,2 0 0,0
04.12.2019 04:00:00 -0,5 -0,9 - - 8 4 - - NW 1020,7 5 0 0,0
04.12.2019 03:00:00 0,3 0,0 - - 5 3 - - NE 1021,3 7 0 0,0
04.12.2019 02:00:00 0,3 -0,2 - - 2 1 - - ENE 1022,0 7 0 0,0
04.12.2019 01:00:00 0,1 -0,4 - - 2 1 - - WNW 1022,7 7 0 0,0
04.12.2019 00:00:00 0,1 -0,4 - - 2 1 - - N 1023,2 18 - 0,0
03.12.2019 23:00:00 1,3 0,6 - - 4 2 - - N 1023,5 0,4 0 0,0
03.12.2019 22:00:00 2,9 2,2 - - 4 2 - - ENE 1023,9 8 0 0,0
03.12.2019 21:00:00 3,5 2,8 - - 5 3 - - ENE 1024,2 10 0 0,0
03.12.2019 20:00:00 3,8 3,1 - - 4 2 - - NNE 1024,7 10 0 0,0
03.12.2019 19:00:00 3,5 2,7 - - 2 1 - - ENE 1024,9 10 0 0,0
03.12.2019 18:00:00 3,4 2,4 - - 5 3 - - ENE 1025,1 10 0 0,0
03.12.2019 17:00:00 5,0 2,8 - - 2 1 - - S 1025,2 40 0 0,0
03.12.2019 16:00:00 7,6 3,9 - - 8 4 - - SSW 1025,6 45 6 0,0
03.12.2019 15:00:00 8,7 4,1 - - 9 5 - - S 1025,8 10 24 0,0
03.12.2019 14:00:00 9,1 4,6 - - 5 3 - - S 1026,4 55 42 0,0
03.12.2019 13:00:00 8,8 5,0 - - 11 6 - - S 1027,0 10 24 0,0
03.12.2019 12:00:00 8,3 4,6 - - 4 2 - - SE 1028,1 17 30 0,0
03.12.2019 11:00:00 4,7 3,0 - - 2 1 - - N 1029,1 13 0 0,0
03.12.2019 10:00:00 3,1 2,7 - - 0 0 - - N 1029,7 12 0 0,2
03.12.2019 09:00:00 1,3 1,0 6,4 9,0 0 0 - - N 1029,8 8 0 0,0
03.12.2019 08:00:00 0,5 0,2 - - 4 2 - - NNE 1029,9 6 0 0,0
03.12.2019 07:00:00 0,1 -0,2 - - 5 3 - - N 1030,0 5 0 0,0
03.12.2019 06:00:00 -1,0 -1,3 - - 2 1 - - NE 1029,9 7 0 0,0
03.12.2019 05:00:00 -0,7 -1,2 - - 0 0 - - N 1030,1 2,1 0 0,0
03.12.2019 04:00:00 -0,1 -0,6 - - 4 2 - - N 1030,4 5 0 0,0
03.12.2019 03:00:00 0,5 0,1 - - 2 1 - - N 1031,0 7 0 0,0
03.12.2019 02:00:00 0,5 0,1 - - 2 1 - - NNW 1031,3 11 0 0,0
03.12.2019 01:00:00 -0,3 -0,7 - - 4 2 - - N 1031,8 8 0 0,0
03.12.2019 00:00:00 -0,8 -1,2 - - 2 1 - - NE 1032,2 10 - 0,0
02.12.2019 23:00:00 -1,5 -2,0 - - 2 1 - - NNE 1032,3 5 0 0,0
02.12.2019 22:00:00 -1,5 -2,1 - - 4 2 - - N 1032,4 9 0 0,0
02.12.2019 21:00:00 -2,1 -2,9 - - 5 3 - - NW 1032,4 10 0 0,0
02.12.2019 20:00:00 -0,4 -1,2 - - 0 0 - - N 1032,4 10 0 0,0
02.12.2019 19:00:00 0,0 -1,4 - - 0 0 - - N 1032,1 10 0 0,0
02.12.2019 18:00:00 1,1 -0,9 - - 4 2 - - WNW 1032,5 30 0 0,0
02.12.2019 17:00:00 2,9 -0,1 - - 5 3 - - N 1032,2 10 0 0,0
02.12.2019 16:00:00 4,9 0,7 - - 11 6 - - N 1032,0 50 18 0,0
02.12.2019 15:00:00 6,6 1,0 - - 9 5 - - N 1031,7 10 60 0,0
02.12.2019 14:00:00 7,3 1,4 - - 13 7 - - N 1031,9 75 60 0,0
02.12.2019 13:00:00 6,7 0,7 - - 11 6 - - NNW 1032,4 10 60 0,0
02.12.2019 12:00:00 5,7 0,7 - - 9 5 - - NW 1032,7 10 54 0,0
02.12.2019 11:00:00 3,2 0,6 - - 8 4 - - NNW 1033,1 20 54 0,0
02.12.2019 10:00:00 0,9 0,4 - - 5 3 - - - 1033,0 10 60 0,0
02.12.2019 09:00:00 -2,6 -3,1 7,2 9,5 5 3 - - WNW 1032,7 10 0 0,0
02.12.2019 08:00:00 -2,3 -2,7 - - 4 2 - - NNW 1032,2 6 0 0,0
02.12.2019 07:00:00 -4,0 -4,7 - - 9 5 - - NNW 1031,9 7 0 0,0
02.12.2019 06:00:00 -3,7 -4,5 - - 8 4 - - NW 1031,3 6 0 0,0
02.12.2019 05:00:00 -2,2 -3,0 - - 5 3 - - WNW 1031,3 10 0 0,0
02.12.2019 04:00:00 -2,3 -3,1 - - 8 4 - - NNW 1030,8 9 0 0,0
02.12.2019 03:00:00 -1,1 -1,8 - - 5 3 - - NNW 1030,6 11 0 0,0
02.12.2019 02:00:00 -1,8 -2,6 - - 9 5 - - N 1030,3 8 0 0,0
02.12.2019 01:00:00 -1,3 -1,9 - - 8 4 - - NNW 1030,2 5 0 0,0
02.12.2019 00:00:00 0,2 -0,9 - - 8 4 - - NNW 1030,1 7 - 0,0
01.12.2019 23:00:00 1,3 0,1 - - 5 3 - - NW 1029,6 18 0 0,0
01.12.2019 22:00:00 2,3 0,9 - - 15 8 - - N 1029,3 10 0 0,0
01.12.2019 21:00:00 2,3 0,7 - - 13 7 - - N 1028,6 10 0 0,0
01.12.2019 20:00:00 3,0 0,8 - - 11 6 - - N 1028,1 10 0 0,0
01.12.2019 19:00:00 4,7 1,8 - - 16 9 - - N 1027,2 10 0 0,0
01.12.2019 18:00:00 6,0 2,7 - - 18 10 - - N 1026,6 10 0 0,0
01.12.2019 17:00:00 6,3 3,0 - - 18 10 - - N 1025,8 50 0 0,0

tt = Température de l'air
td = dewpoint
tt -20cm = Température de l'air -20cm
tt -100cm = Température de l'air -100cm
ff = Vitesse du vent
fx = gusts
dd = Direction du vent
ppp = reduced air pressure
vv = visibility
sd = Ensoleillement
rr = Quantités de précipitations

stations d'obs. à proximité